sat.trackr.live / text

‹ back to catalog

STARLINK-31236

NORAD 58841 · 2024-017R

PAYLOAD ACTIVE UNKNOWN

§ Identity

Operator
Country
US
Launch date
2024-01-24
Launch site
AFWTR
Launch vehicle
Mass (kg)
RCS (m²)

Purposes: comms

External: N2YO · Heavens-Above · Gunter

§ Orbital elements

Epoch: 2026-05-24T21:46:18.113376Z

Period
94.11 min
Inclination
53.1607°
Eccentricity
0.0001157
Mean motion
15.30188013 rev/d
Perigee alt
474.5 km
Apogee alt
476.0 km
Semi-major
6,853.4 km
B*
2.1094e-5
RAAN
210.4246°
Arg perigee
88.8469°
Mean anomaly
271.2664°
Rev number
13,172

§ Raw data

STARLINK-312361 58841U 24017R   26144.90715409  .00000265  00000+0  21094-4 0  99942 58841  53.1607 210.4246 0001157  88.8469 271.2664 15.30188013131728

JSON: /api/v1/satellites/58841 · /tle

For live sub-satellite position, see the globe view (requires WebGL).

§ Visibility from observer

Set your observer location to see the next 7 days of passes ≥ 10°. The values pass through the URL so the page stays shareable.

No JS? Fill the form by hand. The geolocation button needs JavaScript.